This is the latest recevied weather packets stored in our database for station/object OE3PDB-3. If no packets are shown the sender has not sent any weather packets the latest 10 day(s).
| Time | Temp. | Humidity | Pressure | Rain* | Wind** | Luminosity | Snow |
|---|---|---|---|---|---|---|---|
| 1787745628 | 26.11° C | 50% | 1017.8 hPa | 0 mm | - | - | - |
| 1787745028 | 25.56° C | 51% | 1017.9 hPa | 0 mm | - | - | - |
| 1787744428 | 25° C | 52% | 1017.8 hPa | 0 mm | - | - | - |
| 1787743828 | 24.44° C | 52% | 1017.7 hPa | 0 mm | - | - | - |
| 1787743228 | 24.44° C | 53% | 1017.9 hPa | 0 mm | - | - | - |
| 1787742628 | 23.89° C | 54% | 1017.9 hPa | 0 mm | - | - | - |
| 1787742028 | 23.89° C | 53% | 1018 hPa | 0 mm | - | - | - |
| 1787741428 | 23.89° C | 53% | 1018.2 hPa | 0 mm | - | - | - |
| 1787740828 | 23.89° C | 54% | 1018.1 hPa | 0 mm | - | - | - |
| 1787740228 | 23.33° C | 55% | 1018.2 hPa | 0 mm | - | - | - |
| 1787739628 | 23.33° C | 55% | 1018.3 hPa | 0 mm | - | - | - |
| 1787739028 | 23.33° C | 55% | 1018.4 hPa | 0 mm | - | - | - |
| 1787738428 | 23.33° C | 55% | 1018.5 hPa | 0 mm | - | - | - |
| 1787737828 | 23.89° C | 55% | 1018.6 hPa | 0 mm | - | - | - |
| 1787737228 | 23.89° C | 55% | 1018.5 hPa | 0 mm | - | - | - |
| 1787736628 | 23.89° C | 54% | 1018.6 hPa | 0 mm | - | - | - |
| 1787736028 | 23.89° C | 55% | 1018.8 hPa | 0 mm | - | - | - |
| 1787735428 | 24.44° C | 54% | 1018.9 hPa | 0 mm | - | - | - |
| 1787734828 | 24.44° C | 55% | 1018.7 hPa | 0 mm | - | - | - |
| 1787734228 | 23.89° C | 55% | 1018.7 hPa | 0 mm | - | - | - |
| 1787733628 | 23.89° C | 55% | 1018.6 hPa | 0 mm | - | - | - |
| 1787733028 | 23.33° C | 56% | 1018.5 hPa | 0 mm | - | - | - |
| 1787732428 | 23.33° C | 55% | 1018.2 hPa | 0 mm | - | - | - |
| 1787731828 | 23.89° C | 56% | 1018.3 hPa | 0 mm | - | - | - |
| 1787731228 | 23.89° C | 56% | 1018 hPa | 0 mm | - | - | - |
* Rain latest hour (hover to see other rain measurements)
** Current wind speed in m/s (hover to see current wind gust speed)